Location: Eastchurch
(51.4000°N, 0.8667°E)
Time: 22:40:19
(UTC+00:00)

Cosmos 1340 Rocket - Pass Details

Date: 19 January 2026
Orbit: 486 x 516 km, 81.2° (Epoch: 7 February)

Event Time Altitude Azimuth Distance (km) Brightness Sun altitude
Rises 17:54:49 0° 345° (NNW) 2,633 6.3 -13.8°
Reaches altitude 10° 17:56:57 10° 342° (NNW) 1,746 5.4 -14.1°
Maximum altitude 18:00:46 65° 260° (W) 570 3.1 -14.7°
Drops below altitude 10° 18:04:33 10° 179° (S) 1,742 5.5 -15.2°
Sets 18:06:42 0° 177° (S) 2,626 6.4 -15.6°
